GFSWCAN_2pvu_pres_015.txt.gz
Presure
193 200 204 183 184 184 173 194 188 188 178 170 176 184 188 196 204 200 194 187 171 184 174 180 197 199 197 196 195 184 187 185 190 183 181 183 163 180 183 178 176 172 172 175 182 184 186 188 147 195 165 93 185 153
205 203 200 202 187 191 189 181 193 192 193 174 189 184 194 192 192 188 181 193 174 181 199 206 164 217 197 193 170 169 181 184 182 170 167 177 192 175 178 182 188 190 179 184 193 160 159 119 181 149 138 197 212 199
200 202 206 196 197 182 195 197 198 188 188 187 173 194 184 166 188 184 188 195 164 190 191 174 229 187 170 178 188 185 181 168 180 188 192 158 187 188 187 188 188 178 185 181 142 130 106 193 212 135 132 91 213 149
206 217 199 209 205 202 180 201 190 193 177 180 181 182 197 189 174 169 170 200 175 197 192 198 188 192 193 182 191 189 184 188 177 179 189 188 181 187 187 191 140 170 191 203 153 103 137 151 205 211 190 102 213 207
218 209 213 201 197 200 198 194 203 198 191 197 190 173 177 207 175 175 214 186 186 187 180 187 188 188 181 187 184 186 189 184 158 186 187 190 190 191 190 198 202 196 179 149 172 89 210 196 208 206 210 207 208 204
221 221 215 202 208 195 195 205 199 203 197 186 185 193 205 188 198 198 188 192 176 180 186 194 178 178 182 188 188 189 187 183 110 191 188 191 192 199 197 205 106 86 87 220 202 160 167 205 209 219 210 210 223 232
227 227 207 217 202 203 206 193 207 196 199 193 186 194 189 184 186 182 183 181 190 191 190 186 181 179 182 190 134 192 196 199 201 197 194 202 201 214 201 202 96 179 203 207 217 209 201 202 207 203 210 214 222 225
239 226 224 224 216 203 206 204 204 192 194 189 197 195 194 192 203 198 201 196 196 198 203 168 195 189 190 193 197 196 200 202 199 199 190 201 201 203 206 198 141 202 177 207 203 217 207 208 200 210 224 223 214 216
234 222 229 220 231 215 218 206 203 201 206 193 190 212 200 202 198 192 195 191 195 186 186 198 194 195 209 205 187 207 212 192 215 214 203 198 200 198 198 204 207 207 207 208 216 219 215 210 213 224 213 214 231 223
229 241 230 228 223 231 218 207 217 215 202 203 210 202 211 212 181 205 204 203 207 207 201 207 195 195 197 203 210 200 200 201 200 207 192 203 198 200 208 210 209 212 218 217 221 216 214 224 217 223 225 225 264 260
240 238 248 227 242 224 221 224 217 215 209 208 209 211 210 206 206 211 207 212 207 211 209 205 204 198 203 207 199 205 215 214 205 198 197 204 203 203 211 216 216 218 225 224 223 218 228 224 224 232 249 249 272 273
242 228 230 233 239 216 220 226 236 227 203 213 219 217 214 210 212 216 209 203 206 208 203 208 221 218 202 205 210 220 222 219 218 220 207 214 218 214 213 221 221 219 210 220 220 224 233 229 242 252 272 288 316 325
252 247 239 239 236 237 222 214 220 222 221 187 197 211 207 220 192 218 205 205 210 223 223 211 211 214 213 223 222 215 216 213 223 226 229 236 248 240 234 245 222 222 232 242 247 244 236 238 269 276 332 324 324 335
249 255 219 226 230 240 220 226 229 228 232 237 238 228 236 218 224 231 204 218 215 217 194 203 211 217 218 222 231 232 218 207 236 231 233 222 223 233 224 234 227 238 244 244 238 237 255 278 327 328 314 337 311 297
258 255 254 245 250 246 232 234 242 236 227 228 229 224 220 221 225 227 217 210 170 226 224 221 222 211 209 223 208 206 199 232 225 224 227 230 229 236 235 241 246 247 251 244 257 268 322 336 342 336 291 333 432 427
287 271 262 242 238 239 236 236 240 245 219 236 239 235 236 245 243 242 237 238 236 233 235 239 239 238 220 213 248 238 239 247 249 254 256 249 246 245 253 253 259 260 265 299 336 336 338 326 288 292 436 419 407 397
266 276 286 268 265 269 269 232 227 250 252 251 261 273 247 249 251 235 246 238 245 240 237 241 236 250 252 260 255 263 277 253 244 243 321 323 323 292 318 322 317 330 329 336 336 324 281 287 427 420 409 392 400 416
310 280 267 269 265 262 260 259 257 262 260 264 238 265 260 268 255 267 258 256 247 242 248 241 277 315 312 304 336 326 328 324 315 271 128 320 315 313 309 298 286 330 318 284 280 306 417 420 403 391 402 428 389 382
317 313 309 228 260 257 258 257 256 256 247 266 294 333 287 278 276 259 294 252 247 257 308 304 311 305 267 287 301 312 234 314 319 333 274 327 299 315 300 284 279 281 291 346 408 411 400 388 455 438 401 374 376 378
308 308 309 309 309 318 322 308 302 291 262 258 217 265 277 282 287 292 297 293 306 297 265 285 320 295 316 326 326 327 320 316 316 298 311 303 249 279 279 291 301 401 403 401 397 384 407 426 409 379 363 357 374 370
328 310 301 302 304 311 315 319 321 314 305 294 294 291 282 283 279 280 280 274 274 147 276 197 293 294 129 288 168 289 289 288 287 291 293 291 289 320 399 397 396 391 387 384 372 423 405 387 360 359 346 347 346 343
343 329 323 313 302 293 296 299 305 309 312 311 310 311 311 306 225 291 288 282 259 169 284 263 243 291 294 291 294 295 295 297 300 326 400 403 401 396 390 382 383 376 379 421 397 381 367 351 348 338 339 333 336 333
355 343 334 326 262 224 244 294 296 274 309 317 316 320 318 311 275 315 314 306 301 299 297 299 301 301 301 354 353 397 394 393 391 397 393 387 379 376 374 370 426 423 401 367 360 358 349 339 340 329 340 339 336 337
359 361 370 345 334 327 322 324 320 312 312 310 314 125 277 317 324 329 329 333 371 384 388 388 394 396 393 387 385 388 391 391 386 384 370 368 367 369 414 415 401 379 363 347 348 344 341 346 367 366 353 344 341 338
362 366 361 369 373 366 342 327 124 123 338 340 394 391 389 391 288 387 157 355 369 378 385 387 385 384 384 383 379 379 382 372 366 357 420 409 413 406 405 377 350 348 352 346 342 347 355 361 367 362 348 344 337 332
353 362 355 365 364 360 365 362 365 371 375 377 332 375 375 380 388 391 213 373 376 373 370 368 367 368 371 375 373 358 368 409 407 397 390 395 402 386 352 344 361 354 352 341 338 344 343 340 336 336 336 335 330 321
349 350 356 358 357 359 363 367 372 374 374 372 366 361 363 370 375 361 357 360 363 362 366 369 369 371 383 382 395 404 397 388 387 392 392 388 393 407 406 390 348 337 335 341 338 332 329 325 316 310 320 326 324 316
343 339 340 345 347 356 356 356 359 355 349 354 356 357 362 361 354 347 368 376 394 398 393 393 396 401 407 407 403 397 376 368 371 378 387 393 391 370 347 340 336 331 327 325 324 320 301 288 324 330 325 306 299 298
336 339 352 350 352 347 341 340 341 342 349 353 353 338 365 359 357 357 361 362 373 380 391 395 398 411 404 390 372 354 347 368 369 374 347 339 338 339 335 330 323 323 323 309 291 288 330 324 307 306 306 301 315 340
335 334 333 328 328 340 355 376 386 379 378 377 377 383 382 381 381 388 393 385 385 396 395 395 381 389 368 348 344 345 354 345 340 341 337 332 326 317 319 327 322 300 302 326 324 317 316 320 321 323 331 330 322 312
342 360 381 364 344 343 349 357 359 363 362 370 367 361 352 354 363 365 369 368 362 371 378 385 363 344 342 338 338 338 336 333 331 328 324 325 327 305 297 321 327 323 321 320 317 313 312 312 308 302 300 308 310 310
350 343 347 345 337 339 347 343 344 347 357 382 399 403 404 376 363 371 364 366 370 371 381 353 349 350 340 333 331 329 328 328 324 326 321 306 326 334 324 317 311 302 296 297 309 315 317 317 318 318 321 324 325 326
339 339 329 327 328 330 334 329 339 347 342 441 578 607 572 453 419 368 371 371 375 375 367 365 341 336 332 331 328 326 322 323 318 324 333 331 317 307 298 293 295 303 304 303 304 309 314 316 319 323 329 332 335 336

GFSWCAN_2pvu_pres_018.txt.gz
Presure
199 197 207 208 201 199 184 188 188 178 199 200 203 194 197 194 193 189 189 192 196 190 191 188 191 194 189 190 173 202 194 196 198 189 167 173 180 180 174 170 178 185 186 165 192 190 187 188 191 163 116 128 146 186
207 210 206 212 201 186 184 188 175 185 188 171 208 190 194 197 204 197 192 191 184 198 197 190 194 201 197 170 210 169 167 179 189 172 191 188 188 179 176 175 184 185 187 188 188 191 194 178 141 110 102 201 204 199
211 218 206 197 208 194 199 178 201 190 177 193 196 194 198 217 201 202 202 201 199 202 201 206 197 159 200 201 214 173 222 188 171 177 184 183 194 195 195 194 182 175 187 198 186 187 212 81 184 98 99 99 118 201
207 212 213 208 217 198 191 200 188 187 193 195 178 185 193 192 173 168 194 196 161 190 190 191 197 192 169 168 182 204 211 202 181 188 179 190 185 191 188 187 96 175 166 135 194 191 175 152 192 108 171 158 204 203
225 205 205 206 207 201 202 193 198 194 191 181 168 184 181 184 185 180 180 175 178 190 175 171 170 216 180 194 193 187 185 194 189 189 185 189 188 196 194 189 191 176 180 202 131 138 211 200 207 200 201 196 199 207
215 236 224 195 208 207 197 204 205 201 193 184 188 183 183 193 190 181 196 186 182 185 193 176 176 179 179 180 202 180 184 191 194 182 192 199 197 203 204 200 189 200 207 87 214 197 192 200 93 192 202 205 212 203
221 210 216 220 210 207 204 210 194 192 203 197 188 189 188 195 194 195 199 191 189 176 179 179 186 188 201 190 183 185 184 197 200 200 198 190 196 190 200 201 195 151 156 207 204 207 204 186 206 210 206 207 222 227
228 215 214 218 217 214 213 206 206 205 193 197 196 197 184 189 202 175 183 188 187 197 199 162 130 181 182 187 193 200 199 197 208 207 193 194 209 199 196 194 195 200 201 149 143 204 210 208 204 203 228 227 232 218
239 216 212 216 217 219 212 214 207 198 199 203 200 205 199 203 204 186 195 196 204 205 199 198 196 188 187 191 190 191 195 192 195 195 196 201 191 197 202 208 207 209 202 206 210 222 205 212 221 228 225 215 222 234
238 236 233 237 215 221 216 221 211 212 212 208 212 197 210 195 192 195 197 200 200 202 192 185 185 183 185 192 187 194 207 204 207 207 201 206 208 199 205 209 203 203 202 213 220 207 230 212 216 244 227 242 247 256
233 240 244 242 236 238 219 219 222 208 206 208 207 204 203 200 204 207 206 202 190 197 205 199 201 198 200 202 212 209 207 207 207 203 204 204 198 207 218 217 208 216 221 221 230 224 231 233 244 245 250 265 253 267
250 243 238 230 217 228 231 230 222 215 220 221 207 203 206 211 207 202 200 202 207 203 201 206 203 204 205 210 211 213 207 206 205 207 213 206 212 219 230 204 219 234 238 225 235 250 259 256 257 279 265 294 312 319
228 229 241 239 230 228 238 241 206 208 218 223 226 220 213 212 216 214 200 198 216 219 211 214 219 206 208 218 220 221 227 219 227 234 240 237 214 219 230 228 217 227 232 240 251 259 332 340 330 316 318 285 325 331
241 233 247 252 251 233 238 240 244 237 248 239 235 227 226 222 216 219 224 221 185 210 212 212 214 214 220 219 209 210 217 218 226 231 237 212 237 240 238 228 248 254 259 252 312 328 326 293 290 334 344 331 285 266
257 240 233 245 240 239 247 238 257 235 237 230 232 247 214 211 220 221 228 225 225 226 224 221 230 225 217 225 233 222 230 226 234 247 246 242 233 224 245 257 242 251 248 334 318 286 336 336 336 320 281 286 300 400
294 257 247 238 237 245 249 243 239 237 261 240 233 240 240 228 236 227 210 214 221 232 241 219 249 228 218 223 227 235 242 247 244 245 242 246 264 277 281 258 260 295 319 313 280 316 323 293 292 297 311 388 426 411
274 267 271 245 249 259 267 261 261 257 234 231 249 237 224 241 245 235 237 249 224 221 235 238 247 246 240 237 246 241 247 254 232 272 268 266 303 329 269 333 264 291 285 290 283 296 292 299 313 329 434 415 394 446
338 313 278 291 269 264 269 272 265 262 263 262 253 250 259 250 247 271 262 254 253 249 241 230 232 242 251 262 269 277 260 271 311 259 260 310 259 327 295 275 268 292 315 303 299 307 318 408 423 415 405 398 443 417
369 341 293 277 274 254 253 255 255 260 261 252 261 269 266 268 255 258 257 256 253 256 257 251 255 262 234 219 242 251 255 269 283 276 287 265 277 286 282 284 287 289 293 303 324 411 410 413 399 390 431 422 391 367
367 366 322 311 314 276 265 265 259 262 263 263 253 244 259 263 251 266 266 272 271 267 266 259 256 253 179 255 258 268 296 301 300 290 288 269 278 289 302 302 303 308 380 403 400 398 398 383 378 427 401 373 360 353
368 369 214 372 351 306 317 314 313 274 258 259 260 276 272 267 269 300 299 306 242 247 244 245 263 257 257 268 298 299 151 312 308 307 299 304 310 310 313 322 402 400 393 390 391 388 362 432 415 382 359 354 347 336
361 357 366 381 373 366 316 327 314 299 294 288 302 304 316 319 314 293 275 270 264 260 188 246 230 120 268 186 321 323 293 322 322 326 330 335 354 405 401 396 393 388 386 377 371 432 427 395 358 350 349 346 344 355
357 360 363 359 357 359 359 340 317 316 312 309 316 313 314 314 314 312 309 319 324 325 326 273 326 332 333 334 335 335 336 337 336 372 400 392 400 397 387 380 381 373 386 425 418 402 363 348 350 347 338 373 375 371
354 352 378 367 371 369 364 352 351 334 327 321 318 313 309 310 313 313 308 304 305 303 306 314 313 311 281 328 334 389 402 401 399 398 396 388 382 375 374 367 396 416 422 417 391 349 343 350 340 336 340 343 342 338
354 356 352 355 349 354 363 361 365 352 342 339 334 332 331 266 332 336 337 334 319 333 338 138 292 409 404 402 399 395 394 392 390 382 364 365 369 364 381 407 415 404 413 354 354 400 349 337 340 339 329 324 321 313
345 350 342 348 354 364 370 371 373 372 372 376 381 393 391 396 405 399 369 216 393 394 392 394 395 394 388 382 381 377 374 374 363 378 375 395 394 399 396 404 396 399 399 395 375 348 340 335 327 323 319 308 294 293
351 354 345 342 351 353 365 366 367 370 373 379 384 384 387 386 383 378 380 383 379 377 376 375 369 365 367 383 389 395 410 414 410 412 404 397 391 390 392 402 392 385 363 346 340 334 326 324 320 307 292 283 324 315
304 308 331 343 346 357 362 369 375 373 367 368 363 368 363 362 358 355 355 358 365 368 374 381 376 380 374 377 377 387 402 416 408 394 385 380 378 378 380 353 341 336 336 328 319 323 322 308 290 319 321 320 320 319
335 340 347 352 359 359 350 354 352 348 354 357 355 349 361 376 377 381 383 383 384 389 397 401 401 398 397 396 393 395 389 391 375 366 357 359 349 345 344 340 335 323 317 323 314 294 323 322 319 314 306 303 304 309
346 343 338 341 346 341 342 344 332 343 364 365 357 353 352 352 361 364 366 362 359 357 360 367 372 377 385 374 372 379 377 354 354 352 346 340 336 333 331 326 328 327 300 316 328 322 314 302 296 301 306 306 306 308
334 337 334 333 328 330 344 357 352 344 338 338 337 344 344 345 349 387 408 405 392 377 370 369 370 378 371 373 377 368 347 345 347 342 337 332 329 327 329 319 307 326 335 323 308 295 294 301 300 299 300 301 304 305
335 330 327 352 354 350 343 342 329 323 325 329 330 330 334 336 346 536 583 575 551 467 392 385 378 376 378 389 386 352 355 347 336 331 329 326 327 316 319 324 332 329 308 294 293 300 300 297 297 300 302 302 303 309
348 370 348 341 337 332 336 323 325 316 317 325 320 321 324 323 335 336 466 496 498 500 426 403 381 389 392 389 372 345 335 331 327 332 322 323 327 325 327 329 307 295 294 297 302 300 296 297 299 303 303 306 313 316

GFSWCAN_2pvu_pres_021.txt.gz
Presure
221 215 206 208 202 192 183 190 199 197 227 199 187 212 196 205 221 212 212 201 201 207 191 191 197 195 190 196 194 182 186 174 175 180 179 191 182 183 185 170 170 176 174 190 186 190 188 187 187 195 150 201 207 106
212 207 206 211 192 202 188 197 189 204 194 197 190 196 206 198 197 225 213 211 214 209 188 187 190 191 194 191 190 197 197 209 173 178 184 169 183 186 181 187 192 170 186 182 188 192 199 187 205 201 191 196 178 191
207 212 213 197 211 196 193 189 193 201 204 189 203 176 199 180 222 202 197 195 195 193 191 188 192 196 199 200 199 192 191 175 200 210 193 200 205 193 190 178 184 186 127 101 179 89 197 192 189 191 146 189 200 210
221 218 209 213 198 200 199 193 198 191 199 186 190 197 200 197 200 206 222 207 198 197 202 201 194 198 202 201 202 181 202 195 199 173 182 193 190 191 193 184 178 193 198 156 198 192 168 205 192 114 102 197 153 202
214 216 216 217 206 200 200 187 196 195 186 193 195 184 185 199 193 190 203 201 199 203 180 200 170 193 191 189 184 190 178 172 177 183 180 184 187 182 181 190 195 193 189 195 190 192 195 197 203 191 196 201 208 203
215 216 210 220 215 204 196 197 199 204 204 183 195 170 180 189 192 192 180 182 182 187 184 192 171 177 179 170 175 179 183 181 179 185 193 182 179 190 200 184 178 198 196 198 207 203 197 193 200 200 199 204 204 213
228 209 204 213 227 215 205 199 193 198 211 201 194 192 194 197 200 185 191 179 187 194 192 193 195 183 187 188 172 178 182 196 195 191 180 190 197 197 186 186 192 205 202 199 201 198 197 198 201 205 214 199 216 214
251 221 207 217 221 224 210 201 202 210 200 206 199 194 197 198 195 181 187 185 193 193 185 190 144 189 190 194 192 192 194 197 197 197 200 199 189 191 196 205 200 200 204 207 203 194 199 204 201 222 228 232 219 254
260 231 210 213 218 221 220 210 193 205 213 197 210 210 198 200 190 194 197 195 195 195 200 171 164 171 187 196 192 197 199 196 197 186 185 194 204 200 199 198 200 205 205 191 197 208 209 222 220 227 241 222 254 246
228 236 231 215 208 214 214 215 211 212 195 213 200 202 211 204 203 201 199 202 195 203 169 201 197 198 190 193 199 199 205 204 185 187 197 199 201 200 206 201 193 192 198 213 220 220 214 213 232 231 254 272 279 285
233 230 222 219 221 214 218 214 213 211 211 213 212 214 197 203 199 204 209 209 209 209 207 198 199 206 201 197 200 203 200 204 204 208 212 208 192 203 206 203 205 202 208 219 231 241 233 251 259 273 295 311 261 347
253 232 229 232 229 221 215 217 216 223 213 205 203 200 215 212 213 206 204 207 204 197 190 198 206 209 206 194 195 205 199 197 196 204 204 191 210 212 198 203 216 219 221 242 224 243 248 260 275 307 315 331 271 270
263 262 258 234 228 231 228 218 213 213 218 218 215 207 213 217 216 224 220 214 209 214 212 205 206 210 211 212 207 207 208 212 215 207 210 204 214 213 216 226 212 243 229 236 252 265 261 260 272 278 275 268 284 281
244 254 259 261 249 216 218 239 231 225 227 225 214 211 214 216 208 208 208 211 212 219 217 215 220 221 214 217 218 209 203 229 226 219 224 225 228 234 223 241 244 249 246 257 254 256 258 270 280 298 289 281 294 304
255 243 253 239 233 239 220 235 220 244 238 236 226 227 226 222 226 225 226 218 217 212 221 227 159 217 219 227 226 226 229 234 226 226 230 231 218 233 238 259 235 186 264 253 254 247 266 288 305 296 294 301 313 341
272 263 266 252 254 238 234 235 232 236 235 235 208 218 236 235 227 227 222 221 228 230 182 230 214 227 234 227 213 241 235 251 244 242 248 252 221 260 246 230 266 275 245 249 262 269 291 311 312 317 316 335 401 425
323 262 262 261 249 249 255 267 260 248 252 248 256 254 233 219 201 220 227 225 221 221 237 240 222 243 249 235 230 237 246 239 243 256 247 235 254 270 277 270 264 256 259 266 282 321 321 327 328 351 340 427 414 394
365 295 266 255 265 254 258 241 203 271 249 254 237 241 244 233 242 244 228 216 241 245 211 234 242 245 257 261 264 263 262 260 261 265 258 259 266 270 274 257 253 276 270 298 324 327 334 346 344 419 420 406 384 443
349 356 319 263 263 256 255 259 255 253 249 256 251 251 252 254 252 239 249 238 236 243 252 245 250 257 262 257 252 259 264 263 201 230 259 266 268 275 279 300 267 284 311 341 340 345 344 374 405 410 392 413 439 418
367 348 352 357 352 293 260 254 261 257 249 253 252 251 255 275 272 263 269 268 253 259 263 237 252 268 257 265 145 255 262 266 259 232 267 276 188 293 287 331 329 334 342 331 334 407 405 405 394 380 437 434 409 361
361 398 373 342 349 358 348 309 310 304 310 302 299 296 275 277 259 273 273 274 264 256 265 268 266 265 258 261 262 142 266 266 272 274 153 302 341 335 329 313 313 311 409 410 403 395 394 375 412 431 424 386 353 353
356 359 369 382 340 348 352 361 327 312 309 302 303 296 282 278 276 272 283 276 291 271 274 269 265 149 202 219 279 307 288 226 323 322 308 313 322 323 310 314 417 408 399 391 391 377 367 419 428 419 384 347 354 345
347 348 352 332 338 339 334 338 345 267 367 347 343 310 298 294 296 311 300 278 274 272 269 237 116 204 302 301 297 308 245 329 335 327 321 334 350 381 408 398 392 387 382 375 361 401 408 415 419 356 347 360 347 345
349 348 347 346 354 352 349 354 366 372 372 366 362 361 358 345 352 353 317 312 300 318 320 322 162 167 334 168 337 335 334 333 344 352 397 405 399 387 380 377 375 371 374 396 405 399 410 412 406 398 366 343 337 329
341 349 354 351 353 350 352 357 355 354 356 354 351 359 360 363 362 362 359 352 352 353 310 143 354 141 357 356 357 361 413 408 403 394 377 379 375 400 415 410 409 403 408 401 392 406 404 397 381 346 337 328 324 317
336 342 342 354 365 363 367 348 348 348 354 361 377 389 300 390 391 388 159 305 389 225 395 396 395 397 398 394 395 396 389 385 379 369 387 370 378 401 418 409 402 399 388 386 398 396 381 343 339 329 321 326 315 299
339 337 331 339 346 347 341 353 365 366 366 370 372 372 375 382 386 381 387 390 385 385 382 379 379 379 377 376 393 403 407 413 413 407 400 393 398 416 413 402 387 376 377 367 365 344 337 333 318 321 319 305 327 321
328 339 331 344 340 364 362 356 358 368 365 373 378 368 368 370 367 366 366 369 386 388 384 382 381 381 380 379 377 376 376 381 394 395 391 392 394 398 388 371 363 360 351 346 341 337 325 321 320 302 326 321 305 298
324 336 331 328 342 330 344 354 361 361 365 359 358 354 350 357 379 378 365 356 355 351 350 349 361 374 373 372 376 381 383 368 375 374 377 383 391 356 358 356 351 341 337 334 328 328 328 304 322 329 314 292 297 298
355 345 337 340 347 355 362 358 343 347 355 345 346 361 360 356 352 339 339 339 338 339 341 332 441 496 475 421 395 386 388 367 370 355 377 384 365 351 354 346 338 333 329 331 333 307 323 334 330 303 292 298 302 300
348 350 345 342 342 344 350 349 340 330 345 358 355 346 341 332 331 329 326 328 328 325 328 333 363 546 542 505 439 405 394 387 372 380 392 350 351 351 343 335 334 333 332 329 326 331 338 324 301 297 302 302 300 299
330 327 339 338 338 339 333 327 343 356 351 344 336 325 327 331 328 323 306 311 319 325 331 331 337 357 423 493 455 423 414 406 385 381 366 365 342 335 334 336 328 330 325 323 330 330 304 300 303 302 301 301 301 298
348 342 336 334 330 336 348 359 353 339 333 322 321 319 320 316 307 320 318 307 319 320 317 319 321 322 329 337 347 352 351 347 341 339 337 338 338 340 337 334 334 334 333 336 323 300 303 305 302 303 302 300 301 308

GFSWCAN_2pvu_pres_024.txt.gz
Presure
217 214 205 194 206 196 196 205 194 196 200 199 214 206 211 203 200 202 202 198 194 191 201 198 201 198 204 210 200 191 193 194 187 199 185 190 173 191 182 192 175 171 182 190 214 184 187 187 189 192 180 189 191 195
218 214 213 209 208 197 196 201 196 197 171 180 225 178 209 210 208 212 203 205 205 203 208 202 201 200 209 207 190 191 196 198 199 197 185 195 204 197 175 192 187 193 184 187 80 196 82 189 193 192 187 201 207 204
229 212 204 214 212 203 193 185 193 202 193 201 177 241 211 201 206 204 199 213 210 211 221 230 208 205 197 204 192 191 190 192 197 203 203 201 188 170 202 180 168 184 185 188 173 163 197 191 189 189 202 201 209 208
237 225 209 207 209 207 200 202 190 190 193 188 194 205 245 200 196 191 210 198 197 207 216 221 209 213 219 191 193 191 193 197 193 196 200 206 188 188 173 175 189 190 183 182 189 195 193 178 196 199 196 203 203 193
231 219 221 209 206 205 207 198 193 197 181 182 190 190 210 224 196 205 197 199 208 212 198 204 206 206 200 195 191 194 194 196 201 201 192 181 175 176 178 173 185 189 183 191 198 188 191 196 196 202 207 200 197 202
239 226 239 215 205 207 213 200 202 192 202 194 192 192 193 202 201 185 199 225 204 202 192 198 199 201 207 194 193 201 173 207 178 174 179 181 179 171 178 188 188 198 204 196 189 191 198 193 203 202 194 201 202 201
232 225 226 219 217 213 215 203 207 206 192 190 191 189 194 192 189 206 188 188 180 186 190 190 194 201 197 198 196 188 182 189 199 190 193 195 189 188 196 194 198 203 193 188 198 199 205 201 206 206 206 204 209 218
226 227 222 224 217 221 205 206 205 207 201 199 189 197 196 192 196 186 178 191 182 189 187 182 188 200 181 187 190 192 192 192 197 193 181 189 190 192 196 195 187 188 166 197 195 200 197 199 202 204 203 211 209 228
239 220 224 211 230 223 227 217 211 193 207 203 199 200 192 193 191 200 203 197 197 199 197 179 139 97 187 76 185 189 190 169 202 199 198 200 201 199 201 207 198 193 196 199 204 205 203 208 204 216 223 229 233 221
237 242 217 225 207 209 216 216 216 208 204 206 203 197 200 198 182 191 201 208 200 203 201 190 194 186 190 194 201 197 191 195 169 197 196 198 197 94 198 187 200 199 197 203 201 202 203 219 218 213 233 227 257 244
234 233 242 223 223 219 199 206 212 206 219 222 213 208 208 206 196 198 193 203 209 210 208 203 195 191 195 194 198 200 202 207 205 202 202 193 197 204 204 208 207 204 208 215 215 215 221 218 225 227 251 253 274 250
248 259 252 235 231 223 212 208 217 214 215 207 215 219 226 213 205 202 198 207 211 213 202 195 205 210 207 204 201 200 195 195 202 207 211 210 207 202 202 207 211 208 213 224 228 236 241 242 239 257 267 272 275 282
239 241 235 240 247 237 238 237 234 227 206 212 214 215 220 226 226 220 211 203 191 191 192 202 208 208 207 204 201 203 210 214 214 216 214 213 217 209 206 207 203 217 226 227 129 237 239 225 261 250 251 267 280 279
264 262 213 230 260 240 233 231 234 229 208 227 220 219 221 222 226 221 218 212 208 218 218 210 207 204 207 212 212 212 215 215 204 204 207 210 206 214 226 236 214 230 244 235 261 240 268 238 257 254 274 265 284 308
273 296 282 217 243 242 242 224 236 242 231 231 216 208 217 221 219 220 221 220 219 220 226 217 155 212 209 209 214 217 215 221 224 227 223 229 231 235 243 246 226 242 259 266 271 271 264 255 266 269 265 290 343 347
290 288 295 273 242 207 232 251 241 230 250 242 232 225 219 217 212 220 221 223 229 230 221 217 222 223 220 210 209 222 212 230 241 233 231 251 222 235 233 231 246 264 264 260 257 256 252 267 267 282 290 304 317 318
322 288 283 295 291 227 258 244 251 225 218 234 247 234 232 234 230 223 225 230 233 238 237 238 219 245 246 235 227 234 243 229 222 223 230 233 239 244 254 249 258 270 271 246 259 260 219 266 292 316 326 350 433 414
307 307 286 281 286 291 296 230 258 259 235 229 222 223 223 219 229 232 214 225 230 237 226 234 243 236 236 247 255 260 258 227 265 255 226 231 232 278 271 261 273 273 259 258 270 263 272 290 301 328 355 422 407 393
338 349 327 307 283 285 278 202 275 307 256 258 248 234 251 242 236 246 245 248 245 232 223 240 244 241 245 249 235 250 240 252 252 256 261 221 272 269 260 273 202 273 264 273 270 277 312 326 352 403 413 400 388 415
319 336 342 348 297 299 285 277 264 258 287 294 293 272 237 246 242 251 252 240 249 246 249 249 250 239 239 249 219 253 253 255 256 260 269 262 273 249 206 274 282 285 276 280 302 336 349 358 411 403 387 379 417 417
360 309 327 328 342 358 353 296 286 274 272 289 295 289 279 269 269 222 216 242 264 242 255 260 244 254 259 250 250 126 169 269 275 283 283 278 272 272 277 279 283 291 319 351 354 356 407 402 392 380 379 413 412 420
350 356 360 357 329 339 346 357 347 322 306 278 302 290 286 280 276 270 267 261 266 267 263 267 257 252 256 256 170 274 181 252 293 290 287 288 297 310 294 312 319 360 359 370 404 398 401 416 418 410 410 405 412 413
342 343 347 345 349 358 342 338 338 350 349 351 331 304 298 284 288 276 267 256 256 256 260 261 257 262 273 302 319 312 316 316 305 302 317 308 339 372 371 368 388 410 396 391 388 386 422 414 409 403 396 404 401 387
349 332 351 352 364 365 365 369 349 347 351 349 346 347 351 354 348 353 222 330 347 314 159 120 119 315 315 127 244 330 369 379 382 382 387 387 405 408 402 394 388 383 381 377 377 412 415 408 396 390 400 398 378 346
329 332 329 334 346 352 364 366 372 375 374 189 374 338 334 339 341 349 351 377 211 375 375 380 198 389 401 404 402 406 410 414 412 410 400 392 391 390 408 418 408 401 394 398 412 417 400 387 379 385 384 344 340 329
329 339 330 333 343 342 352 350 352 344 352 355 351 356 355 359 367 366 118 281 398 400 401 402 403 403 401 398 400 396 393 391 389 388 388 385 384 384 384 394 409 404 402 407 410 391 378 367 360 352 340 344 330 318
335 335 338 341 333 340 342 350 343 339 341 346 354 354 366 379 382 380 381 385 385 392 391 389 389 387 385 383 374 368 366 367 369 387 388 379 375 380 368 373 383 385 399 398 379 364 355 347 345 337 338 327 326 325
331 321 325 333 347 338 339 331 325 342 352 373 362 365 362 364 375 381 386 383 375 370 373 384 381 368 357 349 350 352 350 352 431 462 434 409 395 379 373 373 367 374 395 372 362 355 346 340 334 330 324 329 322 313
341 346 337 337 335 329 333 336 351 354 367 355 351 355 370 369 372 362 358 358 378 377 363 353 345 346 340 336 341 337 322 356 517 519 484 450 417 390 379 369 368 374 391 368 354 349 337 332 326 328 330 312 316 331
320 337 338 343 342 344 356 362 359 349 350 363 363 362 361 360 347 351 367 360 358 345 339 336 331 330 328 318 318 324 329 341 364 514 482 445 419 397 385 371 375 383 359 355 348 338 333 333 331 316 314 325 335 330
324 329 366 346 345 348 353 356 357 352 349 348 350 345 339 344 369 361 354 346 337 333 329 328 324 319 312 315 322 321 322 326 328 335 347 383 408 390 378 379 381 384 351 340 336 338 339 338 334 325 334 336 313 300
344 345 348 347 343 339 329 337 348 347 342 341 338 347 362 367 357 343 337 333 330 323 316 317 315 311 312 317 313 310 310 310 314 318 320 321 329 336 338 341 349 349 348 346 344 339 336 335 336 339 320 303 305 305
335 337 338 342 348 355 350 343 339 334 335 347 359 363 361 351 341 332 329 323 321 320 319 317 313 307 305 307 310 310 318 332 345 350 340 322 313 312 311 311 312 318 321 323 324 324 315 305 304 304 306 307 306 305

GFSWCAN_2pvu_pres_027.txt.gz
Presure
215 212 204 207 195 191 206 194 218 215 205 204 217 208 225 208 207 199 192 191 190 194 196 200 199 197 199 193 195 195 199 200 207 211 199 184 187 193 190 186 200 183 209 167 120 169 127 149 183 187 191 183 180 186
220 214 216 186 206 193 198 206 191 213 225 213 211 208 191 197 211 197 199 204 200 199 199 194 211 200 199 198 199 198 201 199 207 212 201 193 190 186 191 194 189 198 97 221 76 184 135 185 185 171 181 179 200 193
224 215 207 203 189 204 199 199 200 205 212 216 216 214 176 182 199 200 195 200 207 208 208 202 199 192 191 195 195 199 199 200 207 213 190 192 189 190 185 198 191 196 213 192 189 180 181 170 191 102 199 204 191 198
228 208 219 209 202 196 195 198 202 194 201 206 204 186 214 210 215 171 211 212 201 202 203 197 199 200 204 209 206 213 217 222 209 209 189 189 189 191 192 193 198 194 185 183 170 175 169 187 195 195 199 193 189 195
234 222 211 213 213 203 194 195 203 196 194 196 203 199 206 184 184 192 215 205 208 212 215 207 210 208 209 204 204 211 222 220 217 197 190 197 196 194 205 184 165 192 183 176 184 188 192 196 201 200 204 189 200 204
229 233 221 217 212 204 205 195 191 193 202 193 197 196 200 201 195 205 213 223 194 218 199 213 210 214 192 196 201 200 207 205 200 202 197 199 168 203 171 178 188 198 189 177 187 197 197 193 199 205 192 207 206 203
251 231 230 216 224 208 203 205 198 202 193 198 188 197 191 189 184 191 190 193 210 247 206 183 189 197 201 203 201 201 200 179 213 207 202 208 184 193 194 188 187 179 195 192 196 193 195 193 201 194 203 207 208 217
245 244 246 229 230 215 214 205 199 194 201 197 194 203 189 190 193 187 185 189 186 187 197 196 187 201 206 198 196 194 102 186 190 205 194 187 187 190 176 172 188 196 197 191 197 196 194 207 211 203 202 211 212 212
243 246 238 238 229 214 207 193 209 205 202 203 202 193 195 192 196 198 192 192 195 198 189 183 189 187 194 193 132 90 186 189 197 194 198 197 177 191 189 185 191 196 201 198 195 201 205 212 208 202 212 211 219 229
249 243 254 228 226 227 219 232 204 210 202 199 200 201 199 192 192 192 192 198 200 194 184 192 199 185 186 190 194 198 206 193 167 195 194 198 197 198 199 197 202 192 190 201 204 218 216 214 210 210 214 223 231 228
248 215 244 237 246 233 232 237 225 206 205 213 209 212 211 203 201 204 206 201 192 192 193 188 190 192 196 198 200 205 206 207 206 204 206 208 207 207 209 207 192 192 203 214 214 213 213 211 220 218 227 228 233 234
250 244 223 244 240 249 224 224 217 223 234 205 204 205 208 208 201 204 206 209 208 202 197 198 193 196 192 192 194 193 199 199 210 207 205 199 197 205 206 211 209 212 216 214 218 212 215 225 234 229 237 230 238 236
241 256 233 232 246 251 244 217 215 229 220 225 216 212 219 220 216 219 214 204 201 204 208 203 195 196 195 197 191 199 199 201 201 212 196 201 201 209 212 208 212 221 213 218 209 217 223 234 236 234 226 233 237 287
256 246 252 218 263 239 233 233 221 224 220 219 220 223 221 213 229 227 219 218 215 206 205 204 207 210 207 208 210 211 200 198 204 206 211 214 217 214 203 211 220 217 223 214 217 243 248 218 247 254 226 280 165 264
270 284 280 269 244 254 242 245 249 224 223 223 210 215 222 219 222 222 222 217 214 221 218 217 218 220 219 222 226 229 230 231 226 221 210 216 221 222 227 229 225 231 226 242 228 261 223 239 241 259 269 209 280 286
265 274 279 279 259 254 266 245 248 252 255 229 227 222 220 223 224 223 213 212 220 225 227 219 219 217 218 222 226 231 227 226 228 228 226 225 231 231 244 242 247 249 240 260 271 251 240 257 265 265 282 280 289 299
266 266 268 283 258 238 264 252 257 262 245 261 242 238 237 235 233 231 184 227 239 242 242 243 235 239 249 219 226 229 227 222 228 232 237 234 238 251 249 242 265 269 250 259 253 250 262 267 275 284 289 313 302 305
292 300 274 268 290 296 254 264 259 263 235 229 230 204 221 234 229 231 232 235 232 228 227 248 245 246 246 249 237 240 248 249 247 233 234 248 258 260 258 263 238 232 259 262 248 265 267 278 285 310 310 312 343 378
325 332 323 291 277 276 274 285 275 219 237 250 247 228 240 247 247 244 235 237 254 238 227 225 245 250 254 253 251 249 239 247 265 243 248 241 252 263 252 261 273 265 256 247 264 274 282 287 328 327 318 355 425 413
321 328 333 339 331 311 300 272 270 279 283 267 244 245 257 221 241 253 247 236 235 235 235 229 231 230 232 179 182 225 240 245 247 248 243 243 245 246 247 264 256 266 265 271 276 290 321 321 327 392 418 411 403 384
360 313 321 326 333 339 334 310 311 311 272 323 269 270 267 276 272 216 218 247 235 253 249 250 252 242 239 245 243 227 227 256 114 267 126 228 275 273 259 273 265 275 277 316 324 314 411 417 415 405 397 386 377 418
355 356 351 325 314 320 328 338 333 319 309 311 315 312 284 276 275 275 293 290 277 268 250 257 265 252 255 276 286 291 296 293 287 283 280 279 283 275 278 282 282 303 325 415 419 413 405 400 398 395 394 392 420 413
347 346 352 354 351 345 300 312 322 333 338 339 305 306 309 298 306 284 284 284 280 279 273 272 286 271 275 280 288 290 290 286 205 287 285 284 280 278 295 351 424 416 408 402 399 401 406 416 418 409 399 416 411 395
340 341 346 344 346 348 346 344 307 307 318 325 330 338 343 339 335 299 298 296 294 306 176 285 283 284 159 302 297 292 292 305 300 300 347 407 426 420 418 408 401 393 387 383 387 386 381 390 403 397 415 407 391 378
332 328 330 330 341 336 344 343 349 352 343 326 315 324 326 331 355 332 210 371 354 362 127 365 365 367 363 370 373 383 367 413 418 406 408 406 401 390 384 372 368 365 368 391 384 375 381 383 386 398 406 388 368 356
343 349 345 352 341 335 345 341 348 357 359 355 355 347 364 358 357 353 362 363 368 369 365 372 372 390 402 392 404 409 411 403 398 399 384 370 362 360 361 364 360 439 446 426 401 384 383 377 379 400 385 367 357 347
333 340 348 348 339 336 340 345 353 348 345 291 344 342 343 347 347 354 355 364 373 387 389 389 392 396 399 402 394 387 385 383 374 364 353 347 344 350 344 342 531 500 470 438 405 389 377 369 382 381 364 356 348 341
327 326 331 335 336 344 345 348 355 338 324 340 338 345 332 335 343 353 377 378 373 376 378 379 383 384 379 372 380 376 361 352 344 339 333 334 332 333 326 327 341 489 464 432 408 383 376 374 382 378 354 350 344 334
312 314 350 340 343 334 329 326 328 334 342 343 338 343 349 350 374 367 367 368 376 378 375 373 368 364 371 370 359 355 342 335 329 329 323 324 322 318 314 322 326 326 347 409 400 386 381 382 389 354 355 348 337 334
330 331 330 331 330 333 335 333 341 334 329 346 348 371 368 364 365 369 366 365 364 362 357 355 363 366 354 347 341 342 334 326 327 328 324 318 322 316 310 307 309 317 321 322 329 342 370 370 360 352 346 342 339 335
324 323 321 334 330 332 335 341 351 355 354 349 357 362 359 354 351 350 352 353 348 346 364 372 358 347 340 333 331 329 322 323 324 323 318 312 308 308 313 351 348 358 359 338 330 318 318 320 325 329 333 333 334 335
327 330 332 338 344 349 340 345 351 354 350 347 345 344 355 354 354 349 343 351 372 373 365 353 343 339 334 329 325 321 321 319 309 308 313 320 335 353 352 329 333 344 348 354 356 351 345 336 324 317 312 311 308 306
350 351 353 354 353 352 348 345 347 346 346 347 349 349 346 349 350 361 372 368 363 357 349 343 336 332 329 327 324 319 314 324 330 335 350 367 367 361 355 349 346 343 341 339 336 337 342 345 346 347 347 346 343 341

GFSWCAN_2pvu_pres_030.txt.gz
Presure
210 217 225 206 207 205 211 198 235 236 225 209 208 194 194 183 192 203 193 198 195 198 187 198 188 183 185 189 189 191 190 193 195 195 195 196 202 199 206 210 211 187 189 192 196 196 200 152 208 197 190 179 187 177
214 221 194 213 199 205 196 207 215 233 226 228 207 210 196 188 184 189 203 192 201 202 186 196 197 201 196 191 190 201 199 199 199 192 195 203 197 201 201 203 208 211 185 196 182 191 194 214 198 182 176 175 170 172
227 218 222 215 202 206 192 207 210 230 225 224 220 207 208 188 192 198 191 201 192 196 197 192 189 189 188 192 192 194 190 198 199 196 197 194 199 196 203 221 204 192 213 195 193 198 206 170 174 186 192 180 187 193
228 215 221 214 196 205 201 205 209 223 227 203 231 210 196 188 192 202 193 202 196 201 199 199 204 196 202 196 197 195 201 197 193 196 198 207 200 210 217 221 207 166 198 206 199 208 170 176 193 187 190 189 188 204
228 219 224 215 203 200 204 191 206 211 228 224 196 213 215 203 196 202 198 209 216 219 200 194 202 199 197 195 197 208 194 195 199 198 206 203 204 211 217 217 201 198 198 200 215 184 182 188 186 178 190 198 201 200
227 224 224 216 214 204 204 201 198 191 201 207 181 219 203 196 197 203 213 214 165 202 170 202 204 209 212 205 201 198 201 202 208 207 206 201 202 201 212 195 160 202 209 178 178 188 189 186 194 181 188 183 199 193
224 228 219 216 217 209 199 205 200 205 195 195 206 206 208 225 227 196 213 192 206 214 205 206 192 190 189 210 211 206 203 202 210 217 214 210 202 203 203 195 186 190 187 183 193 194 193 198 199 199 204 208 200 207
224 229 228 215 215 212 213 196 206 192 199 203 204 197 195 194 195 201 204 203 203 202 191 202 198 193 196 201 220 236 209 107 214 206 210 207 198 191 192 177 181 191 185 194 192 194 200 204 211 208 203 210 214 209
251 225 232 226 215 213 216 210 199 204 203 195 193 194 205 203 197 191 193 192 191 192 192 188 187 189 191 191 195 208 196 200 198 199 193 196 195 173 193 200 199 190 194 201 202 209 209 204 198 203 209 211 208 212
253 250 239 224 229 221 214 216 210 205 199 203 204 193 190 185 188 184 200 195 198 196 196 189 187 185 186 190 188 187 94 198 178 195 202 178 192 185 184 199 201 201 199 201 206 203 205 202 202 210 219 213 220 224
256 256 256 248 230 224 225 216 206 205 211 197 199 205 202 195 200 201 197 193 190 196 197 190 187 185 198 198 198 201 199 184 196 190 195 198 195 193 199 195 193 192 197 210 202 201 201 205 212 214 215 223 219 221
255 249 272 259 250 228 227 223 216 197 212 213 203 195 201 204 202 198 201 199 199 192 189 188 189 193 192 191 193 192 194 190 194 197 195 195 197 197 195 192 200 203 204 204 209 211 210 219 222 224 217 225 226 239
246 248 258 232 247 254 257 240 223 221 224 212 214 211 205 200 200 206 205 202 204 198 191 196 198 200 192 198 201 205 211 214 215 212 209 205 207 209 209 208 214 211 222 229 229 231 234 230 217 231 227 231 234 237
228 234 231 258 244 256 243 245 250 247 233 221 238 229 211 213 215 210 214 215 213 209 193 197 205 211 212 211 207 207 208 212 212 214 208 205 208 211 213 227 229 221 220 225 227 226 228 230 226 236 233 249 251 254
244 240 242 228 233 246 252 259 261 247 237 241 235 233 218 225 217 214 227 211 214 215 212 215 214 213 208 211 212 215 220 223 221 223 224 224 223 231 227 219 221 224 229 237 233 231 233 237 258 239 258 252 249 275
243 242 246 249 229 230 232 215 237 235 258 244 235 238 238 238 233 223 231 232 232 223 208 210 207 213 218 219 223 218 216 226 228 230 224 222 224 231 226 237 247 245 247 261 257 270 241 245 255 254 252 244 284 280
272 260 246 249 252 255 238 226 259 229 229 241 239 245 241 242 252 249 233 229 226 230 238 236 230 230 220 224 231 229 224 225 222 221 224 228 234 250 245 238 261 265 258 256 236 234 243 247 248 254 291 294 285 291
278 281 278 272 266 261 266 223 241 243 255 236 227 232 247 256 245 243 241 231 228 233 236 234 239 236 216 221 220 221 227 238 246 250 230 238 248 254 258 241 243 245 243 250 253 263 269 279 289 296 297 293 285 291
264 264 268 272 277 280 281 280 282 280 278 277 265 241 228 231 231 236 236 249 244 253 247 249 242 243 241 235 224 240 238 243 244 245 238 251 200 189 230 256 250 253 258 264 252 276 288 287 292 283 286 295 319 423
324 328 302 271 267 273 269 268 266 270 273 273 257 267 262 286 274 251 244 238 255 246 246 251 254 224 218 230 257 248 236 228 224 231 210 172 119 240 254 259 260 245 263 267 294 272 280 292 292 291 382 409 408 401
312 318 325 331 333 326 277 269 270 275 259 260 266 266 260 267 277 283 282 250 255 240 248 255 224 241 240 232 226 233 249 223 222 213 281 287 283 273 271 274 278 285 297 274 283 287 290 319 409 404 392 380 375 375
348 332 316 321 324 329 334 344 333 343 352 313 281 268 267 276 268 259 236 284 278 258 260 278 276 277 266 266 260 248 236 265 287 285 278 275 275 279 293 283 281 288 289 289 297 391 410 393 358 364 364 361 362 391
349 349 351 352 352 349 331 318 322 326 330 336 341 344 332 320 314 294 309 300 266 266 266 273 285 285 298 303 307 285 280 284 300 278 283 287 288 289 289 291 297 354 437 424 400 335 340 365 350 355 371 424 415 394
379 365 360 357 361 352 346 347 355 344 324 309 317 322 329 335 338 343 338 317 311 313 314 314 319 322 320 319 312 275 307 298 296 297 302 308 320 325 380 428 425 413 395 385 375 363 356 347 350 395 460 435 415 392
346 348 349 355 352 351 349 347 346 346 341 342 345 343 321 308 311 318 324 329 330 333 336 337 336 125 347 352 354 352 355 353 387 386 409 358 425 421 413 410 392 376 365 356 348 341 340 340 337 339 455 427 404 390
331 334 333 333 333 335 336 337 339 339 340 342 343 345 344 345 344 337 318 313 309 309 312 318 295 332 332 333 331 348 382 390 399 401 410 399 397 398 396 385 368 353 343 337 330 334 328 329 325 328 411 420 398 386
332 330 324 326 323 321 327 330 329 329 335 336 341 345 341 344 346 357 347 346 343 346 347 351 364 367 362 370 383 388 390 390 396 397 385 382 384 378 368 359 348 338 335 329 328 327 330 321 317 320 326 331 400 389
348 354 327 321 326 336 344 338 334 344 351 350 344 340 332 346 337 340 338 342 338 341 356 363 363 354 361 382 381 386 384 383 379 371 372 376 364 356 347 340 337 333 328 327 329 327 324 319 314 351 362 330 317 325
322 325 331 329 336 332 341 340 327 327 319 344 345 349 337 334 334 334 338 347 350 352 362 371 376 379 378 375 374 374 367 361 357 372 362 354 346 339 340 337 330 326 322 328 323 321 316 321 355 341 341 359 350 329
336 334 323 326 327 318 309 322 340 345 336 325 336 343 337 340 342 346 356 370 370 365 364 364 365 364 365 361 357 356 352 370 372 360 353 343 337 335 334 329 320 326 326 316 317 320 356 361 357 347 350 345 349 355
338 333 331 335 337 335 332 327 326 326 329 334 336 338 344 350 355 361 355 354 353 354 355 354 359 356 350 348 360 373 373 367 358 350 346 340 335 331 330 327 323 319 320 325 365 364 358 351 347 343 340 338 337 334
320 321 320 330 326 335 334 338 338 340 344 351 356 360 366 360 350 345 351 354 358 361 359 348 352 364 369 367 365 362 356 351 347 341 337 335 332 326 322 325 337 363 367 358 347 337 333 333 333 334 333 333 331 326
330 329 330 332 338 340 347 353 359 361 354 351 347 349 352 352 351 348 357 366 376 388 373 364 359 355 352 350 349 346 342 339 333 327 327 332 340 349 364 362 350 343 349 375 430 429 234 422 416 412 410 410 409 408

GFSWCAN_2pvu_pres_033.txt.gz
Presure
228 217 216 207 216 210 201 216 205 236 230 204 219 209 213 200 201 200 188 195 184 194 197 195 196 200 204 191 189 187 193 196 193 186 187 191 192 194 198 196 192 201 201 201 201 211 221 231 210 196 201 199 204 202
227 219 216 205 214 211 204 205 215 223 232 214 215 230 218 193 196 202 193 196 192 181 191 186 190 184 180 182 193 193 188 183 198 192 187 200 196 200 204 203 196 192 192 203 97 207 226 220 218 218 206 205 207 191
223 223 216 204 212 210 204 202 213 204 234 240 215 211 219 198 195 197 188 204 190 192 189 189 186 195 192 190 185 186 199 194 192 189 194 195 198 192 196 194 197 197 156 127 206 210 217 216 208 209 199 197 189 183
220 224 216 212 214 206 204 206 191 215 235 242 229 233 213 199 216 196 190 207 197 190 204 199 196 189 195 199 187 188 188 188 188 191 194 198 201 202 192 194 196 196 208 210 210 206 223 211 194 196 198 194 183 196
219 219 217 215 214 213 206 203 207 208 216 217 247 194 221 202 208 190 203 192 188 187 186 203 202 199 196 187 182 197 193 197 203 193 197 194 193 197 198 196 201 117 191 206 212 206 209 196 188 188 192 188 191 201
230 214 217 214 214 214 202 206 207 203 211 195 231 206 218 216 200 203 195 201 191 186 187 199 198 191 199 200 201 202 193 193 200 197 196 202 204 200 205 201 164 207 208 206 210 199 191 195 191 199 200 197 203 200
232 221 195 212 217 220 215 204 205 204 206 196 229 233 203 228 215 211 205 204 199 190 191 188 191 187 187 191 199 190 205 202 200 177 203 199 208 213 203 212 220 207 199 198 184 199 183 189 201 199 203 195 192 203
238 232 221 205 219 213 223 213 205 205 206 208 226 216 229 220 196 225 222 207 201 206 197 197 197 199 201 212 210 208 203 205 203 191 198 211 215 214 216 185 217 188 195 195 198 185 191 195 200 200 189 202 203 211
238 233 227 226 217 222 193 211 212 195 201 207 198 212 226 217 219 185 217 222 217 214 201 202 191 183 180 215 190 203 196 210 203 196 195 200 192 190 192 187 193 186 191 198 196 198 200 199 194 202 207 208 210 220
250 238 230 226 225 218 222 213 214 202 203 204 206 200 203 198 195 226 227 220 218 215 173 219 223 220 202 201 186 208 202 200 198 196 194 188 178 178 190 193 196 196 198 197 198 200 204 208 209 212 212 211 222 226
235 251 239 231 228 223 218 217 214 214 199 203 200 202 193 202 204 202 202 202 197 198 192 188 191 198 199 197 193 199 197 198 198 197 201 187 190 198 201 200 193 199 202 209 217 214 209 203 212 212 220 224 220 215
256 246 249 224 238 233 217 218 216 209 214 208 203 203 201 202 199 199 198 193 188 187 194 199 200 196 189 200 197 191 198 202 201 201 202 201 197 198 198 199 199 201 205 206 204 206 218 213 218 223 219 224 228 238
253 258 255 250 248 236 229 218 220 207 216 218 197 202 202 208 208 209 211 207 202 190 189 190 190 197 197 200 201 203 205 204 202 204 207 206 202 205 208 205 210 218 221 216 212 213 218 224 227 225 223 232 239 244
249 254 251 260 238 255 220 228 226 206 202 216 211 210 214 214 196 206 202 200 198 198 206 207 208 206 201 201 204 205 201 209 211 208 202 207 212 212 211 211 214 213 214 221 225 220 229 224 220 232 241 232 261 246
246 257 258 255 256 258 261 253 227 216 226 222 219 217 217 218 218 214 200 199 202 208 209 203 202 207 205 205 205 205 206 212 215 220 223 223 220 218 221 223 221 218 223 223 228 235 226 226 242 254 251 272 270 295
237 253 259 249 243 246 253 252 258 257 244 234 223 223 229 228 218 222 223 216 213 210 207 211 211 209 210 209 212 216 213 215 219 218 220 223 224 222 222 224 235 244 244 223 237 233 242 253 216 251 260 291 286 279
257 253 233 227 234 242 252 262 251 249 273 256 264 253 244 247 250 237 234 230 224 220 217 219 216 217 220 225 222 216 217 213 212 217 230 242 242 243 239 243 246 234 243 243 244 242 263 273 237 268 282 281 282 276
241 238 239 243 244 230 235 234 241 249 257 248 253 238 243 247 247 250 257 257 255 262 268 269 262 250 229 230 230 229 225 238 241 228 233 239 246 233 243 250 250 251 269 273 267 261 246 252 276 278 279 280 277 293
260 252 250 249 244 239 238 236 244 267 246 247 252 252 227 243 242 243 235 243 245 248 245 253 253 255 246 249 229 251 228 230 253 254 256 254 259 263 260 243 251 263 256 259 253 257 274 281 277 280 296 294 291 292
279 286 283 278 275 266 259 255 255 255 264 268 242 235 243 239 234 222 227 228 260 237 233 237 237 240 248 244 237 246 243 247 248 246 250 218 259 268 266 259 251 246 245 262 277 283 278 293 305 297 294 298 297 372
322 282 283 284 286 286 282 279 285 285 276 276 265 260 261 258 245 258 259 222 233 238 282 273 259 271 274 268 256 241 238 242 277 283 284 284 264 238 279 245 260 265 279 285 299 301 305 306 309 307 341 342 385 371
308 310 319 326 296 304 284 276 282 282 283 288 287 288 287 283 281 280 281 280 280 277 275 233 233 236 270 270 271 270 264 262 270 274 264 250 248 289 280 278 285 303 326 312 314 315 317 345 423 408 391 380 368 357
323 316 328 320 318 322 325 328 329 335 335 341 268 275 266 265 265 264 263 264 262 261 262 263 264 266 266 232 265 271 270 276 328 304 306 302 297 303 322 318 316 317 316 315 427 421 420 404 358 381 371 362 353 345
351 350 356 352 359 360 352 349 358 322 323 321 322 324 330 332 333 335 335 339 339 340 345 345 341 340 339 315 333 333 338 344 340 349 320 317 314 343 353 350 348 340 345 397 406 407 402 388 374 363 354 346 343 334
364 365 351 361 365 361 359 360 359 356 350 354 357 356 352 350 349 346 320 318 319 320 323 323 325 329 328 331 332 333 334 335 337 336 334 334 333 324 390 412 414 410 397 394 391 389 380 369 360 349 343 338 332 329
367 375 377 380 379 376 374 369 360 355 353 352 350 346 343 342 345 346 345 345 348 343 342 342 340 341 340 344 344 360 360 364 373 380 389 398 398 398 402 402 396 383 377 383 381 372 365 357 347 341 336 331 326 328
343 348 348 349 350 343 348 346 342 340 342 343 340 340 338 338 335 338 338 340 338 340 358 352 347 344 347 353 357 356 360 366 371 379 387 390 385 383 381 378 372 366 371 374 365 359 352 345 338 336 332 327 328 322
343 330 328 323 325 324 323 327 326 328 328 326 326 326 331 329 329 334 336 342 334 341 337 337 339 345 347 348 351 354 379 379 378 377 373 376 375 368 363 358 359 383 375 365 356 350 342 339 337 334 333 329 324 326
348 342 341 328 325 321 324 328 325 329 328 324 339 349 353 347 338 333 331 338 340 341 346 347 351 350 357 373 378 374 368 368 365 365 364 359 353 357 376 380 376 370 363 355 350 347 339 336 332 325 326 329 334 355
334 334 348 343 335 337 343 337 337 335 340 340 337 327 319 337 342 343 337 336 338 345 354 359 368 375 371 368 367 364 369 372 364 357 363 370 370 366 364 360 356 353 349 344 339 335 333 333 336 341 349 357 354 344
336 335 338 338 330 330 333 336 335 327 334 337 340 342 336 331 332 338 345 350 355 366 373 370 364 363 361 359 361 367 379 386 372 366 361 358 355 352 347 343 338 335 335 334 342 352 358 357 355 352 393 404 420 415
323 327 330 335 338 336 336 339 343 339 325 333 334 338 344 345 343 352 367 365 361 358 361 361 349 354 367 387 388 362 353 353 354 352 349 348 348 347 347 344 360 367 362 353 349 436 557 630 606 143 550 516 473 448
331 331 329 332 335 334 337 342 340 338 338 344 350 354 354 357 355 357 365 363 352 348 354 365 364 352 344 346 346 345 343 343 347 358 353 341 337 352 363 350 338 352 453 397 376 503 624 604 584 564 148 153 486 469

GFSWCAN_2pvu_pres_036.txt.gz
Presure
274 250 245 242 228 223 207 218 243 261 235 222 222 214 206 205 212 194 204 209 200 195 181 198 191 182 195 191 196 187 213 202 201 198 192 195 198 190 185 190 195 201 200 191 200 205 85 194 207 208 208 211 209 207
244 247 249 237 228 217 207 218 220 258 231 231 226 212 213 201 208 199 205 200 202 195 192 183 188 186 198 185 202 207 198 193 188 187 186 192 179 193 192 194 191 193 202 197 184 201 207 208 207 210 203 211 205 212
244 249 239 231 224 217 207 215 219 249 228 223 226 206 213 205 185 210 198 207 204 191 195 188 196 182 191 185 202 189 197 181 185 190 194 188 192 194 76 188 191 194 200 126 178 201 201 204 215 209 213 211 213 195
249 237 234 227 220 215 212 215 203 242 242 228 216 226 214 206 202 207 197 204 201 192 202 189 203 180 191 187 194 189 192 187 190 188 185 187 189 187 186 195 189 190 178 202 208 208 215 208 211 216 214 215 184 196
247 233 230 225 221 207 214 214 207 207 234 213 229 235 217 218 206 210 200 211 196 200 191 201 191 192 193 193 192 190 191 196 194 191 198 191 193 191 194 193 193 206 190 212 208 211 211 229 209 195 199 193 196 200
242 233 231 225 222 208 213 214 191 206 217 235 229 226 208 210 216 206 186 212 194 195 199 187 203 197 183 185 196 199 203 197 201 199 188 193 202 204 213 189 166 128 204 217 210 212 204 200 200 196 198 198 189 199
243 233 224 221 222 208 211 214 213 201 207 189 234 220 221 217 222 221 211 209 197 195 196 190 186 195 202 185 188 193 201 200 191 182 199 196 193 203 197 199 204 188 211 205 197 200 197 191 192 196 197 203 199 202
242 233 219 226 218 218 207 211 213 207 201 206 202 224 239 240 213 219 231 218 212 189 208 187 188 198 193 199 191 194 188 192 197 185 198 189 195 211 208 193 200 213 198 194 197 181 188 192 198 206 201 202 203 208
238 235 228 227 219 218 213 207 210 208 208 203 213 174 188 242 195 225 206 216 228 203 197 203 198 194 201 194 197 183 187 189 197 197 201 207 201 190 213 214 202 201 195 181 191 192 195 201 201 200 204 203 212 212
250 238 231 229 223 218 218 217 211 212 205 208 207 213 204 212 204 201 238 231 171 217 212 207 201 202 206 200 205 209 210 204 199 201 198 197 207 225 213 202 191 191 197 200 201 202 202 203 203 202 212 213 213 216
256 243 230 230 220 224 223 217 218 214 215 211 202 202 206 207 205 205 225 224 235 231 227 219 221 222 225 221 215 210 208 213 210 213 215 234 213 192 195 198 192 195 202 201 204 205 204 202 213 214 213 222 224 219
257 243 244 238 221 226 219 217 208 216 212 214 213 206 203 200 203 208 211 213 230 214 227 219 216 216 215 216 215 217 214 219 221 222 198 198 194 198 196 196 201 203 203 203 204 205 213 214 207 218 223 212 222 226
252 253 248 244 246 225 225 220 215 210 214 217 210 214 215 211 208 200 198 202 196 196 200 203 210 213 214 212 208 204 202 200 203 200 198 197 197 199 200 202 204 203 205 211 205 211 218 218 220 215 224 229 235 246
245 253 258 252 241 243 240 217 223 209 208 211 217 217 219 208 205 210 202 200 200 202 200 200 200 201 200 201 202 202 203 204 201 205 208 211 211 212 212 210 207 210 211 216 218 219 217 223 221 229 237 230 243 249
252 247 250 254 257 242 239 239 232 215 219 220 215 219 220 222 214 212 213 208 202 203 205 195 199 209 205 206 209 209 210 213 214 213 211 214 214 215 212 218 220 217 221 220 225 226 234 243 234 242 254 264 262 259
263 266 267 259 249 259 257 238 239 242 234 229 219 217 220 214 213 210 212 213 212 214 215 210 208 211 212 211 209 207 206 207 212 214 217 215 219 222 218 220 220 224 227 231 238 242 245 250 257 259 261 250 213 260
252 235 255 265 263 266 269 252 252 247 240 238 236 232 234 237 221 221 223 224 224 218 200 207 211 214 215 214 215 217 218 222 221 220 221 221 214 230 227 233 241 239 234 256 257 252 262 242 237 250 292 301 266 293
252 250 241 248 240 255 263 261 263 263 264 251 251 259 259 225 225 232 235 235 231 226 220 221 220 221 224 224 223 223 224 225 224 219 221 234 237 244 262 266 263 260 252 265 273 254 253 268 265 274 280 274 280 324
252 253 255 257 254 253 253 242 250 256 257 262 272 267 272 257 254 255 251 252 254 255 248 225 221 256 257 263 261 249 263 259 264 261 261 260 254 257 258 259 258 252 255 273 291 288 286 275 269 278 281 306 321 307
263 259 243 239 253 264 261 246 262 261 260 253 266 263 257 266 259 255 257 262 249 267 277 268 251 253 249 252 242 241 245 256 254 243 263 245 230 237 281 277 283 256 272 273 271 271 271 268 287 319 304 309 317 334
261 285 296 252 252 261 251 237 245 255 249 260 261 265 260 234 233 262 262 252 229 271 252 229 262 284 236 250 261 242 238 237 239 247 247 267 271 236 280 278 271 261 271 272 282 307 322 302 306 334 361 367 340 335
270 270 268 265 267 304 279 257 268 261 258 263 264 273 271 272 261 259 261 259 259 258 260 261 261 262 260 261 261 263 270 280 282 281 278 280 279 275 272 272 282 307 314 316 320 328 339 335 337 363 411 401 397 396
321 312 291 280 276 274 264 273 276 273 275 275 274 271 274 272 278 277 279 281 285 283 280 282 284 284 282 283 284 283 281 277 272 269 268 275 310 308 331 260 343 342 339 334 359 356 409 400 404 398 392 387 385 381
322 314 319 323 328 323 324 314 329 290 287 329 327 284 329 284 283 280 276 275 274 275 279 282 278 273 272 270 273 323 321 329 333 333 334 332 328 331 331 343 361 372 379 383 404 401 398 396 390 382 375 374 377 373
339 339 326 338 342 337 330 328 330 338 340 344 346 357 354 346 354 368 325 322 339 329 330 341 336 330 330 348 342 350 346 345 350 359 363 364 368 369 368 365 371 391 398 393 387 389 382 377 373 370 365 383 375 366
368 370 376 381 371 369 370 370 370 366 366 368 370 369 365 364 367 359 356 354 353 352 351 350 349 351 351 349 348 347 345 349 351 356 358 358 360 366 364 393 386 380 377 378 377 371 363 365 382 384 379 372 365 359
381 379 381 381 380 384 390 388 382 377 378 379 374 372 366 363 360 352 351 348 346 346 349 348 345 345 343 342 345 343 344 347 349 356 364 365 375 388 384 377 375 377 373 364 366 379 378 374 370 366 363 358 352 345
451 435 349 346 350 353 352 360 357 355 353 351 351 343 347 340 335 337 338 336 336 341 341 338 335 335 342 346 346 342 343 344 350 364 383 379 378 373 370 372 373 395 390 381 373 367 364 360 355 348 341 339 343 345
402 410 418 351 335 328 328 330 332 332 330 330 329 330 330 331 328 333 337 334 338 350 343 339 343 354 354 353 351 352 358 373 373 370 371 364 367 378 399 384 369 365 363 356 353 354 357 351 352 365 364 358 353 355
378 364 370 356 342 337 334 330 328 326 327 328 327 333 338 346 339 343 348 344 336 339 347 348 347 345 350 354 365 374 371 368 364 359 366 375 374 362 355 355 348 347 352 352 346 334 361 362 352 347 423 411 379 143
347 346 353 340 334 347 339 346 347 342 341 347 341 337 341 342 339 337 332 337 341 341 346 351 357 366 366 368 373 365 357 364 373 361 349 347 346 345 341 357 361 339 335 362 365 350 339 406 411 382 366 359 395 577
341 337 336 334 338 339 336 335 337 329 326 329 338 342 345 342 343 346 349 349 349 355 361 362 362 363 354 350 360 372 355 347 346 345 345 351 354 364 325 329 377 370 359 341 345 422 404 376 362 359 397 362 569 460
335 330 330 328 329 335 340 342 339 337 339 343 343 340 341 343 345 354 359 356 350 349 351 351 355 371 374 359 344 343 345 351 358 355 352 338 338 391 374 363 351 337 344 417 413 381 361 362 384 413 393 547 541 529

GFSWCAN_2pvu_pres_042.txt.gz
Presure
265 275 271 260 238 225 300 271 259 257 244 235 246 250 253 237 222 225 215 206 214 210 206 139 205 198 215 202 191 188 194 193 186 197 187 197 192 190 204 206 202 202 198 197 198 188 186 190 192 186 189 190 199 202
229 246 256 276 254 268 294 263 251 247 237 227 245 249 247 231 245 215 208 208 205 203 206 201 193 203 214 200 196 188 195 196 186 189 194 197 191 184 200 210 209 205 203 201 191 193 190 187 189 188 190 195 190 186
279 253 272 226 284 297 259 251 242 240 231 232 256 251 241 234 241 234 211 193 199 209 198 199 198 212 209 205 195 190 195 199 190 186 186 183 193 199 200 201 204 207 199 182 188 191 191 191 199 200 202 181 186 200
259 253 277 286 299 256 249 247 240 231 223 271 245 236 230 233 197 218 209 203 198 200 197 199 195 210 203 200 195 198 197 193 193 190 190 186 191 197 201 201 198 200 162 195 194 192 197 203 187 196 189 189 195 194
272 277 288 274 281 255 248 234 238 229 218 259 249 230 233 238 227 219 206 202 197 206 194 202 199 203 196 210 203 201 201 184 187 190 194 193 182 190 190 189 193 197 195 196 97 204 204 186 190 173 188 192 197 201
271 290 260 294 260 249 230 241 229 221 257 240 248 230 228 229 211 215 214 205 200 210 205 208 203 196 183 196 192 200 202 194 190 192 193 191 191 195 196 182 188 194 182 185 189 191 187 180 179 192 196 197 200 199
268 275 251 255 253 239 233 239 232 222 255 241 224 237 226 222 205 218 203 203 199 201 210 196 199 209 210 210 208 187 199 199 196 194 193 193 190 194 197 197 193 137 201 198 199 197 183 190 194 198 200 198 200 211
280 288 272 250 246 233 238 230 230 227 215 249 240 249 235 219 203 212 220 205 205 201 202 206 195 197 198 197 206 210 204 200 200 202 200 188 201 201 194 190 188 192 194 191 186 190 195 198 201 202 192 210 218 228
248 285 247 250 229 237 236 227 225 222 216 233 240 246 203 215 221 209 206 208 208 207 210 204 205 206 203 192 194 201 111 203 200 199 202 199 192 187 188 182 181 192 191 195 199 208 208 205 194 211 222 228 218 209
240 274 250 239 230 237 231 228 223 221 214 217 218 244 236 229 217 224 215 201 190 206 203 200 202 206 209 209 207 212 204 199 203 209 200 200 204 203 202 205 205 202 201 201 201 203 204 212 221 227 214 219 204 203
249 265 250 239 230 235 239 231 221 214 223 213 221 209 251 237 230 232 225 216 218 210 223 212 203 205 207 206 209 210 211 210 208 206 208 207 200 202 205 210 213 213 211 213 215 221 222 226 216 217 204 206 214 212
256 252 246 240 231 237 237 234 227 217 218 212 213 236 270 247 243 237 236 233 217 206 221 209 208 209 215 214 215 206 202 223 222 218 212 208 209 231 233 237 239 236 231 229 229 216 222 215 203 204 214 214 209 226
247 265 247 250 234 237 238 236 233 218 220 217 206 214 217 176 195 198 230 228 226 220 226 227 224 223 232 237 239 235 233 240 237 239 235 235 233 231 213 213 214 211 219 229 229 207 204 204 212 214 212 220 221 219
260 264 254 258 246 231 238 233 235 228 216 219 218 204 209 217 207 200 190 200 215 233 233 219 198 197 198 219 212 197 201 202 203 201 202 204 204 201 201 201 202 202 202 201 206 211 213 215 219 224 222 226 232 228
235 255 263 246 229 235 248 241 233 234 222 217 216 215 215 206 201 205 209 209 209 208 203 201 201 201 202 206 209 212 205 200 197 198 201 205 211 214 212 211 212 214 217 217 218 224 224 215 221 232 233 227 233 244
254 229 258 255 222 234 244 244 240 235 236 230 226 217 217 213 213 211 209 208 203 203 205 207 206 207 211 214 210 213 218 214 213 214 211 215 220 220 219 217 216 210 225 225 219 217 231 237 233 238 246 261 267 252
260 254 245 260 254 241 239 241 229 238 233 231 234 229 225 221 219 217 212 210 210 211 209 210 214 216 215 215 216 217 216 217 218 213 214 213 216 222 228 227 225 225 221 232 236 234 243 251 264 273 266 255 251 248
252 252 246 245 242 255 253 254 236 237 246 250 233 241 237 235 231 223 217 214 209 208 211 210 215 217 215 214 208 213 214 213 226 225 225 225 226 225 224 226 236 241 248 252 262 265 271 264 254 256 259 292 288 277
251 253 256 256 254 251 245 238 241 241 243 245 248 246 239 231 227 227 235 234 231 230 230 227 227 225 226 226 227 227 226 226 228 232 237 243 246 248 245 248 255 263 270 268 256 253 253 303 290 288 286 286 316 346
256 260 262 252 255 248 251 248 251 246 253 253 250 250 255 252 253 252 252 247 243 244 239 241 244 245 246 248 248 249 249 248 247 244 249 249 248 256 262 274 255 243 265 278 295 303 282 277 272 305 339 333 352 372
249 258 268 249 248 258 260 257 253 265 254 253 265 267 248 246 253 247 269 268 268 294 269 279 272 272 280 276 264 262 263 280 278 279 279 233 234 261 275 271 259 266 281 281 263 283 319 341 317 359 363 379 372 373
248 250 249 237 237 245 259 244 272 265 238 240 264 262 264 277 283 263 253 275 274 260 264 264 267 267 269 268 261 267 276 274 274 273 267 287 293 293 275 294 300 295 283 299 348 333 355 359 371 371 374 373 379 400
245 259 256 257 248 251 262 250 252 255 250 272 259 248 255 255 262 265 266 264 264 267 270 272 270 267 264 263 267 267 264 261 260 269 270 271 273 278 277 282 320 359 358 360 360 363 366 362 364 369 384 395 394 381
262 262 263 255 263 257 248 261 256 253 258 262 262 259 264 263 262 260 260 257 258 266 271 272 271 273 274 271 262 264 273 282 289 299 355 356 368 368 363 357 357 356 358 356 356 357 363 357 381 392 391 379 386 384
277 257 256 252 255 255 279 245 246 274 268 256 269 255 272 256 259 259 262 266 269 268 267 268 268 275 310 334 326 331 283 375 375 375 367 366 363 360 361 355 351 351 357 354 358 348 373 386 383 371 381 379 360 355
291 280 278 274 276 278 292 295 271 272 275 273 269 272 269 287 311 306 294 282 294 288 322 335 318 335 366 381 384 383 374 369 364 362 357 352 350 351 345 343 343 353 354 351 373 377 377 365 373 374 350 352 351 363
312 314 317 320 317 317 321 322 319 320 319 317 317 316 319 320 322 329 329 328 329 371 396 393 389 390 382 379 373 364 361 354 348 342 338 340 342 342 347 353 349 358 370 375 372 363 376 377 349 349 354 363 335 371
330 323 322 334 331 336 338 340 341 342 340 339 337 337 338 366 382 391 395 394 389 389 385 380 375 370 363 355 347 342 336 333 335 345 347 354 358 361 359 366 369 367 366 378 379 375 359 353 362 358 322 390 378 358
457 466 454 463 466 461 458 461 471 465 487 435 397 386 378 378 373 370 370 367 364 362 358 351 350 337 331 328 328 337 348 343 344 349 359 363 362 366 365 366 378 377 370 364 356 356 365 344 340 390 371 358 343 361
414 416 419 423 420 417 412 409 413 442 433 407 387 371 353 350 346 346 342 339 336 333 331 330 335 346 354 346 342 343 351 361 360 363 367 366 362 373 371 361 355 351 351 382 391 319 381 383 369 359 351 390 449 429
383 383 381 377 377 376 377 380 378 377 378 381 374 362 352 344 342 336 337 337 341 346 349 346 342 347 351 356 357 355 361 362 354 360 368 359 351 344 341 357 408 419 346 309 382 369 361 351 348 418 446 441 419 385
358 352 355 355 355 357 358 363 362 358 357 356 349 352 351 354 350 349 341 339 339 342 353 355 353 354 362 361 354 354 382 368 355 346 342 361 359 418 415 404 314 309 370 365 354 344 409 445 447 442 434 412 361 352
343 341 345 347 349 351 350 348 349 347 345 344 344 346 346 343 344 343 349 356 357 358 361 358 352 356 370 365 354 347 343 347 363 374 416 404 395 386 377 370 365 355 346 364 454 449 447 438 424 390 347 345 339 335

GFSWCAN_2pvu_pres_045.txt.gz
Presure
287 274 295 281 255 256 254 249 270 261 259 259 302 267 253 250 236 254 253 231 215 236 231 220 212 213 207 203 205 207 198 170 192 193 188 188 187 188 191 190 198 193 195 200 204 201 201 200 197 192 191 188 188 166
286 282 261 261 264 271 263 221 260 283 280 299 264 257 252 241 230 274 262 234 224 213 215 125 181 199 201 165 204 202 204 198 187 193 195 195 194 188 191 189 198 168 192 205 204 207 210 206 197 187 188 197 191 203
274 266 248 231 251 262 248 266 292 278 239 288 258 246 244 232 257 270 248 235 225 214 212 212 208 207 207 203 202 195 207 199 191 191 186 192 193 185 185 188 187 182 201 197 197 207 206 202 194 197 193 203 194 191
257 258 250 250 252 262 255 282 268 300 275 251 246 240 233 244 259 262 227 224 224 218 208 210 207 209 196 201 205 205 209 201 196 194 188 194 193 195 190 187 189 196 193 193 196 158 169 191 198 192 180 190 192 194
262 266 272 233 280 269 283 288 292 265 251 244 240 230 248 255 253 242 249 217 224 213 219 200 210 208 201 204 202 195 212 201 194 195 194 185 192 192 193 193 186 176 195 190 165 199 200 197 181 195 196 193 192 188
217 253 264 269 230 264 289 254 258 250 244 239 232 227 253 256 239 242 248 229 215 210 206 216 207 210 208 199 196 203 212 206 202 199 196 196 198 190 189 188 187 193 200 115 198 196 191 194 188 190 193 187 191 194
255 236 265 265 252 298 257 252 248 248 231 238 227 224 245 237 242 244 230 225 204 206 198 187 202 210 201 199 192 190 199 205 207 206 198 196 201 199 194 188 195 199 189 200 195 201 197 196 188 181 195 194 200 204
246 261 264 267 288 261 249 238 235 239 233 231 235 246 244 238 240 225 236 226 214 213 203 209 192 200 198 193 199 207 193 205 204 195 198 197 201 200 195 194 192 198 206 202 194 197 198 206 205 208 213 214 215 214
255 245 283 312 268 254 241 243 239 232 234 225 238 253 245 237 233 231 234 226 222 216 205 205 192 195 209 200 199 204 197 204 207 200 207 201 204 199 186 182 197 200 203 202 202 205 207 207 207 207 214 220 234 241
268 281 300 290 254 248 240 240 235 235 229 219 249 249 231 232 221 231 229 218 211 213 208 205 205 204 200 201 203 212 207 206 204 202 200 200 200 206 206 206 205 206 206 207 208 198 208 209 217 230 238 234 228 210
272 274 254 274 253 248 235 241 228 236 227 216 244 248 244 224 225 232 226 226 220 215 209 207 207 207 203 204 208 211 207 213 205 199 199 202 204 204 203 201 200 214 215 211 213 219 228 238 234 222 206 205 205 209
263 252 280 264 252 242 238 239 230 236 225 215 217 225 245 221 238 232 216 227 225 215 207 207 216 207 212 204 208 209 205 208 201 206 204 197 204 202 206 213 209 214 225 237 218 209 201 204 204 209 216 217 217 216
250 241 273 255 236 245 240 237 228 236 226 221 221 222 214 251 257 244 231 229 212 218 222 220 221 221 216 208 205 205 204 192 217 219 210 208 211 222 233 237 234 212 202 198 204 203 204 213 214 216 215 213 224 228
269 277 267 248 245 248 237 236 232 235 228 225 211 219 215 208 220 210 213 251 245 228 212 211 228 226 221 215 191 216 214 179 209 226 224 225 203 224 206 204 208 208 204 202 205 213 215 215 213 213 224 222 224 228
275 239 266 241 244 242 239 246 224 236 231 225 229 217 218 213 209 211 212 231 223 205 222 230 230 229 228 225 225 226 224 203 195 195 201 203 201 202 203 208 210 210 211 214 214 215 210 223 225 227 227 232 239 249
271 253 240 258 248 246 234 237 234 228 245 235 229 225 215 219 216 207 210 212 207 202 185 191 191 193 197 203 215 207 210 210 207 207 206 206 208 211 215 219 219 217 214 213 219 226 229 233 231 235 246 255 254 254
270 267 247 269 258 244 247 234 236 232 232 238 238 228 231 218 214 220 219 211 206 205 206 209 211 208 207 205 205 207 208 208 211 212 216 213 216 220 215 215 224 224 224 233 236 236 237 245 250 257 255 271 270 245
275 267 252 232 267 251 247 239 237 244 239 234 234 238 230 233 230 221 219 219 217 216 215 212 211 211 213 214 212 213 214 216 219 217 216 216 224 225 224 230 236 236 238 245 248 252 256 259 269 274 241 249 268 284
267 276 275 257 228 258 265 254 249 255 219 234 239 245 246 242 235 235 234 230 226 225 223 220 221 220 221 221 219 215 211 211 222 225 229 232 234 237 236 237 246 251 257 254 260 278 274 256 249 271 285 294 319 331
269 263 264 268 264 262 252 263 261 253 246 243 238 239 242 243 241 243 246 241 235 234 233 236 237 237 235 235 238 239 238 238 240 242 241 240 241 246 255 259 266 266 273 273 244 265 277 277 273 300 316 358 371 374
264 264 268 270 263 262 260 265 265 246 246 246 261 259 258 258 259 257 249 248 246 246 244 251 252 252 248 247 247 247 247 249 254 259 262 271 283 259 260 262 265 251 287 289 293 301 317 302 372 371 367 364 364 371
268 263 254 250 265 260 254 245 261 264 266 267 266 267 270 260 258 263 265 265 269 262 263 261 265 265 266 265 256 252 244 257 260 264 272 272 274 277 273 273 273 280 285 290 286 290 376 371 366 365 370 367 353 371
266 256 252 259 249 252 254 255 261 247 263 264 257 272 277 247 252 255 255 256 261 254 252 258 265 266 261 255 251 259 268 270 267 263 266 269 267 275 281 304 310 318 342 375 375 374 371 365 364 359 349 369 365 374
261 262 257 257 243 237 246 252 246 248 251 262 256 260 255 251 264 267 261 262 268 262 263 273 268 263 264 263 275 273 286 297 300 299 301 294 293 331 372 315 317 302 357 365 368 367 357 351 349 365 363 373 384 380
266 257 251 271 255 250 251 248 261 255 255 257 260 259 254 257 268 268 269 270 259 260 266 269 270 267 266 270 270 265 267 281 279 287 324 323 395 393 387 375 378 368 361 351 346 343 355 363 366 377 383 378 383 380
281 265 272 271 263 267 267 268 265 262 266 267 270 266 263 263 259 266 264 268 271 271 274 280 283 292 290 289 306 292 319 321 398 399 389 385 379 374 367 357 350 345 340 348 355 360 370 377 376 377 377 370 365 355
281 289 288 295 291 283 278 278 275 270 273 286 289 289 286 285 284 286 287 291 291 285 286 293 321 328 326 330 336 376 400 393 387 377 372 364 356 345 341 337 346 352 352 360 376 377 374 374 367 359 353 350 429 335
298 297 295 293 287 283 286 290 290 289 289 292 294 297 309 319 318 324 323 295 303 319 327 329 334 383 389 386 384 379 376 373 355 348 344 339 338 339 359 354 355 368 374 370 369 370 360 353 348 421 417 332 310 373
314 320 320 322 323 322 324 324 325 328 332 331 332 328 325 327 340 342 353 430 423 402 387 381 378 372 367 360 353 346 340 338 338 340 352 361 361 363 369 369 369 368 377 363 355 356 375 424 407 390 313 371 359 356
388 414 443 443 440 443 437 437 435 425 427 442 457 456 442 428 416 411 399 384 375 370 365 359 353 346 338 337 335 342 342 353 353 351 364 368 372 367 359 377 366 353 355 366 391 411 399 387 377 369 357 350 462 458
398 397 400 394 395 394 393 393 398 398 395 393 395 399 396 399 394 380 378 373 367 363 357 353 349 346 345 345 351 350 351 363 372 372 365 362 375 362 353 353 367 366 408 404 389 379 370 360 352 422 455 450 421 359
372 367 369 369 370 367 364 368 364 365 366 367 369 370 369 368 365 365 365 362 359 355 353 352 353 353 349 349 364 374 370 361 362 368 359 350 352 371 372 423 407 395 381 375 364 352 347 448 450 437 371 355 347 345
354 356 356 355 354 352 352 352 353 352 351 352 350 350 351 350 349 348 350 348 347 350 354 360 367 369 366 360 359 364 360 353 350 360 376 418 420 407 392 381 374 368 358 349 346 448 428 376 360 351 348 347 344 343

GFSWCAN_2pvu_pres_048.txt.gz
Presure
333 327 324 323 320 332 309 310 287 284 274 237 250 302 275 286 276 267 275 258 251 281 274 236 219 225 218 212 205 218 224 186 205 202 194 194 197 193 193 189 194 190 196 190 194 197 192 188 199 202 199 203 205 206
313 303 316 273 272 286 287 287 272 261 265 297 292 270 281 268 279 271 251 251 266 293 243 225 218 213 219 222 205 218 207 164 203 204 200 195 197 196 193 188 185 194 190 190 188 197 201 179 200 197 198 205 199 190
294 285 280 278 278 279 281 277 283 263 278 284 279 227 221 263 269 253 246 244 273 250 229 235 234 215 221 172 195 187 191 196 201 197 202 197 187 193 192 193 193 197 192 187 186 187 188 96 196 185 189 197 195 195
268 266 267 267 257 245 257 272 282 270 242 262 262 252 279 275 255 248 242 238 257 242 224 214 225 208 224 207 202 201 200 209 207 203 191 199 196 189 189 189 191 195 149 186 137 197 133 193 196 199 191 194 197 191
267 262 257 259 252 259 250 249 239 261 235 262 272 253 259 263 247 244 237 250 251 235 233 210 223 201 222 206 211 204 196 200 206 197 207 202 198 195 191 191 72 187 191 194 195 192 197 190 191 199 201 191 204 199
249 246 244 238 246 247 243 260 244 264 256 261 281 275 261 253 240 238 235 265 252 232 227 215 216 231 219 203 209 202 202 199 203 198 208 208 202 199 194 194 193 195 198 201 201 200 198 200 197 191 206 193 193 200
259 259 256 247 252 249 249 256 270 276 253 295 270 258 244 240 235 225 256 250 240 234 225 218 222 213 218 201 208 202 202 199 199 207 190 208 208 205 199 196 195 196 190 189 197 204 201 206 202 188 201 204 201 202
244 243 242 249 249 248 274 275 282 259 297 276 258 240 242 237 228 226 254 266 247 238 221 221 215 221 216 196 202 207 204 195 201 199 195 205 209 205 202 200 202 202 202 200 203 207 187 192 205 210 204 192 210 212
260 258 267 227 276 271 283 279 276 271 266 251 239 238 235 232 222 239 250 268 259 255 214 222 214 207 212 194 207 208 207 203 208 199 199 205 197 202 204 203 200 203 193 194 200 206 210 209 197 198 205 213 214 221
251 252 258 216 242 280 270 260 253 263 241 244 232 234 229 224 249 254 249 257 246 242 220 188 215 208 202 199 189 189 204 211 201 198 198 189 194 205 204 203 208 207 201 199 206 198 194 204 209 207 217 223 236 226
235 253 271 263 251 241 254 254 245 250 240 234 228 229 224 220 240 252 241 232 242 233 226 212 205 211 212 210 203 207 202 198 196 196 205 201 199 206 211 204 209 207 207 205 199 204 208 211 216 223 235 209 210 210
253 267 258 250 272 266 246 255 242 238 238 227 225 229 224 221 245 247 240 234 236 224 219 232 206 210 211 207 209 208 213 209 204 206 201 200 199 205 206 206 208 209 208 207 214 222 221 225 225 210 204 209 213 218
248 274 283 281 268 252 245 251 243 239 238 229 230 224 224 216 248 244 234 235 229 227 225 229 231 210 214 212 215 216 216 211 201 208 204 206 208 204 205 184 201 209 212 218 214 226 215 213 205 207 213 215 214 216
240 269 275 282 258 249 255 243 241 236 237 231 228 228 218 227 247 242 238 239 223 222 230 233 229 229 221 218 216 217 221 219 211 213 215 218 217 214 216 211 209 216 221 230 201 210 208 204 214 216 207 207 224 222
261 256 275 278 268 253 250 239 240 237 226 236 233 227 219 211 254 249 235 228 223 232 230 229 229 231 229 226 216 217 220 199 202 204 204 209 222 221 227 236 230 219 213 214 207 204 215 214 202 217 224 215 231 236
252 275 265 257 253 258 249 245 238 237 242 229 235 228 221 220 215 214 236 239 228 226 224 229 229 231 229 233 233 226 224 224 223 227 232 229 222 226 223 218 212 206 195 214 214 202 208 193 209 226 236 239 244 250
257 247 264 250 261 261 254 238 245 248 235 238 227 231 225 221 216 219 218 217 213 210 220 223 217 212 198 264 262 259 253 249 210 202 204 210 214 204 202 205 214 215 202 217 224 180 225 235 232 240 248 247 258 270
250 261 232 260 255 257 256 247 234 244 242 235 233 233 234 232 225 223 220 218 216 219 218 215 210 210 213 215 215 214 216 218 216 202 202 209 214 215 215 206 199 224 227 231 237 240 243 244 244 253 254 277 273 254
273 254 267 239 260 268 263 251 239 242 248 246 241 241 232 231 235 236 229 224 224 224 222 219 220 219 220 223 222 220 217 220 219 218 221 222 222 215 228 234 238 241 245 248 246 248 254 260 258 259 261 251 281 289
295 303 246 263 277 252 268 261 249 250 253 249 245 242 240 242 236 232 237 238 235 237 236 232 232 232 232 213 225 223 225 222 210 205 232 232 237 244 253 256 255 251 255 225 261 252 266 264 259 275 292 273 356 376
271 249 257 279 279 275 260 260 265 262 249 251 248 249 246 244 245 249 251 246 243 242 245 250 252 253 253 249 248 246 249 252 249 248 256 258 258 258 254 248 250 252 271 264 263 254 257 286 284 339 381 387 389 387
243 248 261 279 282 282 279 273 273 271 270 267 262 254 251 252 252 252 255 258 253 245 243 243 243 240 244 246 245 251 256 259 256 251 250 249 256 270 275 268 264 270 277 293 284 271 311 360 393 400 391 385 377 367
278 276 281 280 266 275 276 278 280 284 271 268 268 271 274 274 275 266 269 269 268 268 264 263 260 257 256 251 255 250 257 259 252 257 263 269 256 247 278 278 263 277 287 303 336 343 398 393 389 380 370 357 352 366
281 278 278 258 259 259 266 272 266 258 264 267 274 276 278 265 266 275 279 269 280 276 270 270 269 269 259 251 256 270 274 276 275 271 278 279 287 305 290 284 296 329 335 398 399 391 384 375 362 349 343 368 363 379
279 259 262 263 275 279 274 269 275 279 263 259 262 260 251 252 257 256 251 253 251 259 266 267 252 262 277 274 275 272 275 273 274 293 291 283 293 299 324 326 397 399 393 385 375 365 351 348 350 368 364 378 381 380
275 276 267 270 272 274 245 244 267 257 242 241 271 273 248 270 264 269 270 266 273 271 269 269 271 272 276 284 288 296 291 284 286 293 302 323 326 329 376 395 384 373 364 355 344 348 355 363 370 376 375 378 366 360
285 274 269 272 270 271 271 275 274 274 275 272 274 269 276 273 265 273 269 266 269 275 279 278 276 278 285 288 291 295 296 312 312 320 327 362 387 376 373 365 355 343 346 353 352 356 370 374 375 374 362 354 367 412
276 279 290 284 299 293 277 268 277 274 272 269 273 281 280 283 287 273 295 299 301 290 287 289 291 292 298 312 321 320 320 326 327 386 379 373 366 358 349 346 348 355 351 358 377 372 374 370 359 354 369 412 398 384
291 279 293 291 286 289 292 280 278 296 300 302 299 292 293 286 291 293 293 300 305 312 318 322 322 325 329 339 344 407 395 380 372 366 362 358 352 346 353 357 352 365 376 372 377 365 354 361 389 422 399 384 374 358
305 315 314 317 317 317 313 315 308 309 310 321 323 327 329 331 388 384 381 439 428 418 417 415 407 400 390 386 376 376 367 364 363 358 356 356 364 359 359 374 371 370 366 357 355 401 429 413 395 380 374 360 348 367
359 399 395 343 396 418 409 416 416 413 409 407 412 411 406 405 409 413 416 409 406 400 394 390 386 380 376 373 370 367 366 368 365 364 362 366 374 371 370 365 357 357 378 412 407 395 382 372 364 356 350 347 421 382
389 387 388 386 386 384 387 385 383 384 384 379 379 380 378 376 374 372 369 368 367 366 367 365 363 363 364 362 361 362 363 366 369 368 363 364 361 354 359 372 404 402 391 380 369 360 353 349 350 444 415 385 366 357
374 372 372 370 366 363 365 363 363 363 361 361 361 362 364 362 360 361 362 361 360 362 362 363 364 364 365 364 363 359 358 362 362 356 358 368 379 397 396 383 371 362 356 353 373 451 441 414 390 375 363 357 353 351